14. Oktober 2019

Flugplatz / Aerodrome PPR

Sehr geehrte Kunden,

unser Flugplatz ist wegen umfangreicher Umbauarbeiten an unserer Befeuerungsanlage in der Zeit:

vom 07. – 27.10.19 PPR

PPR-Telefon: +49 9292 977261

PPR-Email: info@edqm.de

 

Coffee-To-Fly

Serviceangebote

Airport Coffee-Lounge

Nutzen Sie unsere gemütliche Lounge zum Ausruhen und Entspannen vor Ihrem nächsten Flug. Wir bieten Ihnen dazu Kaffee, Tee und Soft-Drinks sowie Sweets im Self-Service für kleines Geld. In unserer Flugvorbereitungs-Corner können Sie sich informieren. Natürlich bieten wir Ihnen freies WLAN. [ Mehr… ]

Rabatt für Flugschulen

Bedingung:

Es handelt sich um direkt aufeinander folgende VFR-Platzrunden:

>  5 Landungen = davon 1 Landung gratis

> 10 Landungen = davon 2 Landungen gratis

(Ggf. anfallende Anfluggebühren werden ebenfalls nach obigen Schema erlassen)

 

Die gilt nicht für IFR-Flüge!

Flugplatzwetter

METAR:

EDQM 131650Z 18005KT 150V210 CAVOK 17/10 Q1016

Unsere Onlineservices

Unsere Onlineservices

Doppelnutzung

In Abstimmung mit dem Freistaat Bayern wird der Verkehrslandeplatz Hof-Plauen bis auf weiteres einer Doppelnutzung ab 01.09.2015 zugeführt.

Aufgrund der Parallelnutzung zum Test von Fahrerassistenzsystemen aus dem Bereich der Automobilentwicklung ergibt sich folgende Einschränkungen:

Taxiway „B“ zeitweise nicht nutzbar und Vorfeldbereich eingeschränkt berollbar!